Terminal Aerodrome Forecast
Issued by NWS Oklahoma City, OK

Home | Current Version | Previous Version | Text Only | Print | Product List | Glossary On
Versions: 1 2 3 4 5 6 7 8 9 10 11 12 13 14 15 16 17 18 19 20 21 22 23 24 25 26
000
FTUS44 KOUN 271737
TAFOUN
TAF
KOUN 271737Z 2718/2818 34008KT P6SM BKN016
     FM271900 35007KT P6SM SCT040
     FM280700 06006KT P6SM BKN020
     FM281000 08009KT P6SM OVC012=

USA.gov is the U.S. government's official web portal to all federal, state and local government web resources and services.